Location: Unspecified
(54.1780°N, 0.0000°E)
Time: 13:15:45
(UTC+00:00)

Tiros 1 - Pass Details

Date: 20 June 2019
Orbit: 630 x 664 km, 48.4° (Epoch: 22 July)

Event Time Altitude Azimuth Distance (km) Brightness Sun altitude
Rises 00:14:10 0° 211° (SSW) 2,936 - -12.3°
Reaches altitude 10° 00:17:03 10° 193° (SSW) 2,024 - -12.3°
Exits shadow 00:19:07 17° 168° (SSE) 1,595 8.6 -12.3°
Maximum altitude 00:20:17 19° 149° (SSE) 1,519 8.6 -12.3°
Drops below altitude 10° 00:23:32 10° 105° (ESE) 2,017 9.6 -12.2°
Sets 00:26:24 0° 87° (E) 2,924 10.6 -12.2°
